This demonstration page uses our WeatherBlox Daily Observations layout. Learn more.

Left ArrowRight Arrow

34.02893, -84.19858

Hourly Observations for February 17, 2022

Temp ( °F °C ) Dew Point ( °F °C ) Humidity (%) Winds ( mph kmh ) Pressure ( in mb ) Visibility ( mi km ) Precip ( " mm )
12:53 am 00:53 Clear 58 14.4 48 8.9 70 70 SE 6 9 30.28 1025 10 16 0.00 0.00
1:53 am 01:53 Cloudy 57 13.9 49 9.4 74 74 SSE 8 13 30.27 1025 10 16 0.00 0.00
2:07 am 02:07 Cloudy 57 13.9 49 9.4 74 74 SE 5 7 30.28 1025 10 16 0.00 0.00
2:53 am 02:53 Cloudy 57 13.9 51 10.6 81 81 SE 8 13 30.25 1025 10 16 0.00 0.00
3:51 am 03:51 Cloudy 57 14 52 11 82 82 SE 7 11 30.25 1024 10 16 0.00 0.00
3:53 am 03:53 Cloudy 57 13.9 52 11.1 83 83 ESE 7 11 30.24 1024 10 16 0.00 0.00
4:53 am 04:53 Cloudy 56 13.3 51 10.6 84 84 SE 8 13 30.22 1023 10 16 0.00 0.00
5:53 am 05:53 Cloudy with Light Rain 56 13.3 52 11.1 87 87 SE 8 13 30.22 1023 9 14 0.00 0.00
6:53 am 06:53 Cloudy 56 13.3 53 11.7 90 90 SE 8 13 30.21 1023 10 16 0.00 0.00
7:53 am 07:53 Cloudy with Mist and Fog 56 13.3 54 12.2 93 93 VRB 7 11 30.21 1023 4 6 0.00 0.00
8:38 am 08:38 Cloudy with Mist and Fog 56 13.3 55 12.8 97 97 SSE 10 17 30.21 1023 2 3 0.00 0.00
8:53 am 08:53 Cloudy with Mist and Fog 56 13.3 55 12.8 97 97 SSE 8 13 30.19 1022 2 3 0.00 0.00
9:49 am 09:49 Cloudy with Mist and Fog 57 14 55 13 94 94 SSE 9 15 30.18 1022 2 3 0.00 0.00
9:53 am 09:53 Cloudy with Mist and Fog 57 13.9 56 13.3 96 96 SSE 8 13 30.18 1022 2 3 0.00 0.00
10:13 am 10:13 Cloudy with Mist and Fog 57 13.9 56 13.3 96 96 SSE 8 13 30.18 1022 2 3 0.00 0.00
10:53 am 10:53 Cloudy with Mist and Fog 58 14.4 57 13.9 97 97 SE 9 15 30.14 1021 4 6 0.00 0.00
11:53 am 11:53 Cloudy 61 16.1 57 13.9 87 87 SSE 8 13 30.10 1019 10 16 0.00 0.00
12:00 pm 12:00 Cloudy 61 16.1 58 14.4 90 90 SSE 12 19 30.10 1019 10 16 0.00 0.00
12:14 pm 12:14 Cloudy 62 16.7 57 13.9 84 84 SSE 7 11 30.10 1019 10 16 0.00 0.00
12:53 pm 12:53 Cloudy 64 17.8 57 13.9 78 78 S 10 17 30.06 1018 10 16 0.00 0.00
1:53 pm 13:53 Cloudy 67 19.4 57 13.9 71 71 S 16 26 30.01 1016 10 16 0.00 0.00
2:53 pm 14:53 Cloudy 67 19.4 58 14.4 73 73 S 7 11 29.97 1015 10 16 0.00 0.00
3:22 pm 15:22 Cloudy 67 19.4 58 14.4 73 73 S 9 15 29.95 1014 10 16 0.00 0.00
3:53 pm 15:53 Cloudy 68 20 58 14.4 70 70 SSE 10 17 29.93 1013 10 16 0.00 0.00
4:53 pm 16:53 Cloudy 68 20 59 15 73 73 S 9 15 29.90 1013 10 16 0.00 0.00
5:53 pm 17:53 Cloudy 68 20 59 15 73 73 SSE 9 15 29.88 1012 10 16 0.00 0.00
6:53 pm 18:53 Cloudy 69 20.6 59 15 70 70 S 9 15 29.87 1011 10 16 0.00 0.00
7:53 pm 19:53 Cloudy 69 20.6 60 15.6 73 73 S 14 22 29.84 1010 10 16 0.00 0.00
8:53 pm 20:53 Cloudy with Light Rain 69 20.6 60 15.6 73 73 S 15 24 29.81 1009 10 16 0.00 0.00
9:53 pm 21:53 Cloudy with Light Rain 66 18.9 62 16.7 87 87 S 17 28 29.83 1010 10 16 0.07 1.78
10:14 pm 22:14 Cloudy with Light Rain 65 18.3 62 16.7 90 90 S 15 24 29.83 1010 8 13 0.02 0.51
10:41 pm 22:41 Cloudy with Nearby Thunderstorms 65 18.3 63 17.2 93 93 SSW 13 20 29.83 1010 8 13 0.05 1.27
10:53 pm 22:53 Cloudy with Rain 65 18.3 63 17.2 93 93 SSW 10 17 29.83 1010 6 10 0.08 2.03
11:04 pm 23:04 Cloudy with Heavy Rain 64 17.8 63 17.2 96 96 W 23 37 29.87 1012 2 2 0.22 5.59
11:11 pm 23:11 Cloudy with Heavy Rain 63 17.2 61 16.1 93 93 SW 17 28 29.85 1011 1 1 0.49 12.45
11:15 pm 23:15 Cloudy with Heavy Rain 62 16.7 61 16.1 96 96 WSW 17 28 29.87 1011 1 2 0.51 12.95
11:21 pm 23:21 Cloudy with Rain 62 16.7 61 16.1 96 96 WSW 15 24 29.87 1011 3 5 0.53 13.46
11:32 pm 23:32 Cloudy with Rain 62 16.7 61 16.1 96 96 W 12 19 29.88 1012 4 6 0.58 14.73
11:41 pm 23:41 Cloudy with Rain 62 16.7 61 16.1 96 96 W 8 13 29.87 1011 3 5 0.62 15.75
11:53 pm 23:53 Cloudy with Rain 62 16.7 61 16.1 96 96 W 10 17 29.86 1011 3 5 0.68 17.27

Powered by AerisWeather